Regional Weather Roundup
Issued by NWS Charleston, SC

Current Version | Previous Version | Graphics & Text | Print | Product List | Glossary On
Versions: 1 2 3 4 5 6 7 8 9 10 11 12 13 14 15 16 17 18 19 20 21 22 23 24 25 26 27 28 29 30 31 32 33 34 35 36 37 38 39 40 41 42 43 44 45 46 47 48 49 50
000
ASUS42 KCHS 100910
RWRCHS

REGIONAL WEATHER ROUNDUP
NATIONAL WEATHER SERVICE CHARLESTON SC
500 AM EDT THU JUL 10 2014

NOTE: "FAIR" INDICATES FEW OR NO CLOUDS BELOW 12,000 FEET WITH NO
SIGNIFICANT WEATHER AND/OR OBSTRUCTIONS TO VISIBILITY.

NOT ALL STATIONS ARE QUALITY CONTROLLED BY THE NATIONAL
WEATHER SERVICE. USE DATA WITH CAUTION...ESPECIALLY
DEWPOINT OBSERVATIONS.

SCZ027-030-031-034>040-042>050-101000-
...SOUTH CAROLINA...

CITY           SKY/WX    TMP DP  RH WIND       PRES   REMARKS
N CHARLESTON   PTCLDY    79  75  87 SW6       30.02R
WATERFRONT PRK   N/A     81 N/A N/A SW6         N/A
FORT JOHNSON   NOT AVBL
MOUNT PLEASANT FAIR      81  79  94 S6        30.02S
JOHNS ISLAND   MOSUNNY   81  72  74 CALM      30.02S
PINOPOLIS        N/A     81  75  83 CALM      29.94S
MONCKS CORNER    N/A     77  77 100 CALM      30.01S
SUMMERVILLE    FAIR      73  73 100 CALM      30.02F
BEAUFORT MCAS  CLEAR     76  69  79 W3        30.03R
BEAUFORT ARPT  NOT AVBL
HILTON HEAD IS CLEAR     75  72  88 S3        30.04S
GEORGETOWN     NOT AVBL
WALTERBORO     SUNNY     75 N/A N/A CALM      30.02S
ORANGEBURG     CLEAR     73  70  90 CALM      30.02S FOG
BARNWELL       FAIR      70  68  94 CALM      30.03R
AIKEN          FAIR      70  70 100 CALM      30.06R
MANNING        FAIR      75 N/A N/A CALM      30.01S
KINGSTREE      NOT AVBL
COLUMBIA       PTCLDY    74  70  87 CALM      30.01S
SUMTER         PTCLDY    75  71  87 CALM      30.00F
FLORENCE       PTCLDY    76  71  85 SW3       30.02R
MYRTLE BEACH   CLOUDY    81  75  83 SW8       30.03S
N MYRTLE BEACH CLOUDY    82  75  79 SW15      30.03S

$$

GAZ063-065-086>088-099>101-113>116-118-119-134-136>141-150-101000-
...GEORGIA...

CITY           SKY/WX    TMP DP  RH WIND       PRES   REMARKS
SAVANNAH ARPT  CLEAR     75  69  81 CALM      30.03S
HUNTER AAF     CLEAR     73  69  85 SE3       30.02S
FORT STEWART   CLEAR     73  67  83 NW1       30.03S
STATESBORO     NOT AVBL
SYLVANIA       SUNNY     73  71  93 CALM      30.04S
CLAXTON        FAIR      72  72 100 CALM      30.03F
THOMSON        MOCLDY    73  73 100 S3        30.08S
AUGUSTA-BUSH   PTCLDY    70  68  93 SW5       30.02R FOG
AUGUSTA-DANIEL CLOUDY    73  70  90 SW5       30.04R
SWAINSBORO     FAIR      73  73 100 CALM      30.04F
VIDALIA          N/A     72  70  94 SW3       30.04S
ALMA           CLEAR     71  68  90 CALM      30.05S
WAYCROSS       CLEAR     75  74  95 SW3       30.05S
JESUP          NOT AVBL
BRUNSWICK      CLEAR     73  70  88 CALM      30.06S
SAINT SIMONS   CLEAR     76  72  87 SW3       30.05F

$$

SCZ027-028-034-036>038-045-046-048>050-GAZ119-141-101000-
...LAKE AND SUPPLEMENTAL COASTAL OBSERVATIONS...

STATION/POSITION TIME  TEMP    WIND        PRES    WAVE   SWELL
                       AIR SEA DIR/SP/G            HT/PER HT/PER/DIR
                 (UTC) (F)     (DEG/KT/KT) (MB)    (FT/S) (FT/S/D)
UPR LAKE MARION  NOT AVBL
WINYAH BAY       0800   80     200/  6     1016.0F
LAKE MURRAY      0800   77     260/  4/  6 1015.9S
ACE BASIN NERRS  0800   79        CALM     1016.0F
FORT PULASKI     0900   77 78  210/  3/  5   N/A
SAPELO ISLAND    NOT AVBL

$$

ANZ835-935-AMZ111-154-330-350-352-354-374-450-454-472-101000-
...C-MAN AND BUOY OBSERVATIONS...

STATION/POSITION TIME  TEMP    WIND        PRES    WAVE   SWELL
                       AIR SEA DIR/SP/G            HT/PER HT/PER/DIR
                 (UTC) (F)     (DEG/KT/KT) (MB)    (FT/S) (FT/S/D)
FOLLY BEACH CMAN 0800   83     210/ 12/ 13 1016.9F
BUOY 41004       0900   82 81  200/ 16/ 16 1016.6R   5/ 6   2/ 8
BUOY 41008       0900   81 84  280/ 10/ 12 1017.4F   3/ 5   2/180/ 5
5E ST. MARYS GA  0900      83                N/A     2/ 8
FRYING PAN BUOY  NOT AVBL
BUOY 41025       0900          VRB 17/ 21  1017.6F   5/ 6
CAPE LOOKOUT NC  0800   81     210/ 10/ 13 1017.9F
BUOY 41002       0756   80 81  200/ 14/ 16 1020.7    4/ 4   2/ 90/10
BUOY 41010       0900   81 83  170/ 10/ 14 1019.1F   3/ 9   2/120/ 9
BUOY 41012       NOT AVBL
ST AUGUSTINE FL  0900   75     220/  5/  5 1019.1R
CAPERS NEARSHORE 0800   82     210/ 14/ 17   N/A
FRIPP NEARSHORE  0800   82     270/ 10/ 14   N/A


$$



USA.gov is the U.S. government's official web portal to all federal, state and local government web resources and services.